STARLINK-37207, 100184

Orbit data source: Space-Track

STARLINK-37207, 100184 is a payload satellite owned by SpaceX/Seattle (US) in SSO that was launched on Sat, 01 Aug 2026 UTC launched from the Air Force Western Test Range (AFWTR). Payload-class satellites include a variety of spacecraft equipped with specific instruments for various scientific and technological missions. These include communications satellites like Starlink; space stations such as the ISS; scientific satellites like the Hubble; Earth observation satellites from companies like Planet Labs, Umbra, and HawkEye 360; GPS; miniature CubeSats for education and research; and military/defense satellites.

Loading next visibility...
Identifier
100184, 2026-175F
Orbit
SSO
Country
Flag of USUS
Related business
Manufacturer
SpaceX/Seattle
Mission
Operational spacecraft
Bus & Motor
STARLINK V2MO, Unknown motor
Mass
575 kg wet, ~530 kg dry
Launch date (UTC)
2026-08-01 (1 month ago)
Launch vehicle
Unknown
Launch site
Air Force Western Test Range (AFWTR)
Object type
Payload
Rocket body
Debris
Shape & HBR
BOX + PAN, 17.7 m
Radar Cross Section
RCS unknown

Expand to show TLE details & history
Last TLE update: 8 hours ago

TLE from 8 hours ago
0 STARLINK-37207
1 A0184U 26175F   26249.54936900  .00133112  00000-0  87957-3 0  9993
2 A0184  97.2840  91.3522 0001238  96.0775 264.0631 15.75187508  6987
Epoch: 2026-09-06T13:11Z
TLE epoch observation values (Epoch: 2026-09-06T13:11:05.481Z)
Latitude
-0.00006°
Longitude
-92.06352°
Altitude
347.352 km
Speed
7.7 km/s
True Right ascension
06h 05m 24s
True Declination
0° 00' 00"
Sunlit
Object was in daylight at epoch
Visualization orbit readout
Latitude
Unknown
Longitude
Unknown
Altitude
Unknown
Speed
Unknown
Apparent Right ascension
Unknown
Apparent Declination
Unknown
Sunlit
N/A
Visualization observer readout
Local Sidereal Time
13:02:40
Azimuth
Unknown
Elevation
Unknown
Doppler factor
Unknown
Orbital elements
Apogee altitude
341.817 km
Perigee altitude
340.153 km
Semi-major axis
6,719.122 km
Eccentricity
0.00012
Inclination
97.284°
RAAN
91.3522°
Arg. of periapsis
96.0775°
True anomaly
264.04899°
Mean anomaly
264.0631°
Eccentric anomaly
264.05604°
Mean motion
3.94071 °/min
Orbital period
91.35 mins
BSTAR
0.00087957
Loading maneuver chart data...
Computing Atmospheric mass density...
Loading historical data...
Loading historical data...
Loading historical data...
Loading historical data...
Loading historical data...
Loading historical data...
Loading historical data...

Documentation

Showing up to 5 results
|